Wetterdaten: Mittwoch, 31.07.2013
Datum Zeit Temperatur Luftfeuchte Luftdruck Regen Wind Richtung Richtung Taupunkt Windchill Windben
31.07.2013 00:00 14,9 C 78 % 1024,9 hPa 0,0 l/m 1,0 km/h (0 Bft) O-NO 67 11,1 C 14,6 C 3,7 km/h (1 Bft)
31.07.2013 00:05 15,1 C 77 % 1024,9 hPa 0,0 l/m 1,4 km/h (1 Bft) O 90 11,1 C 14,9 C 1,9 km/h (1 Bft)
31.07.2013 00:10 15,1 C 77 % 1024,9 hPa 0,0 l/m 1,3 km/h (1 Bft) O 90 11,1 C 14,9 C 2,4 km/h (1 Bft)
31.07.2013 00:15 15,0 C 77 % 1024,9 hPa 0,0 l/m 1,0 km/h (0 Bft) O-SO 112 11,0 C 15,0 C 3,4 km/h (1 Bft)
31.07.2013 00:20 15,1 C 77 % 1025,0 hPa 0,0 l/m 0,8 km/h (0 Bft) SO 135 11,1 C 15,0 C 0,0 km/h (0 Bft)
31.07.2013 00:25 15,0 C 77 % 1025,0 hPa 0,0 l/m 1,0 km/h (0 Bft) O-SO 112 11,0 C 14,9 C 3,5 km/h (1 Bft)
31.07.2013 00:30 15,0 C 77 % 1025,0 hPa 0,0 l/m 1,0 km/h (0 Bft) O-SO 112 11,0 C 14,8 C 2,4 km/h (1 Bft)
31.07.2013 00:35 15,0 C 77 % 1025,0 hPa 0,0 l/m 1,3 km/h (1 Bft) O 90 11,0 C 14,8 C 2,3 km/h (1 Bft)
31.07.2013 00:40 15,0 C 77 % 1024,8 hPa 0,0 l/m 1,6 km/h (1 Bft) O 90 11,0 C 14,8 C 2,4 km/h (1 Bft)
31.07.2013 00:45 14,9 C 77 % 1024,8 hPa 0,0 l/m 1,0 km/h (0 Bft) O 90 10,9 C 14,8 C 0,0 km/h (0 Bft)
31.07.2013 00:50 14,8 C 77 % 1024,8 hPa 0,0 l/m 0,6 km/h (0 Bft) O-SO 112 10,8 C 14,7 C 2,3 km/h (1 Bft)
31.07.2013 00:55 14,8 C 77 % 1024,8 hPa 0,0 l/m 1,1 km/h (1 Bft) O-SO 112 10,8 C 14,6 C 0,0 km/h (0 Bft)
31.07.2013 01:00 14,7 C 77 % 1024,9 hPa 0,0 l/m 1,1 km/h (1 Bft) O 90 10,7 C 14,6 C 0,0 km/h (0 Bft)
31.07.2013 01:05 14,6 C 77 % 1024,9 hPa 0,0 l/m 0,8 km/h (0 Bft) O-SO 112 10,6 C 14,4 C 3,7 km/h (1 Bft)
31.07.2013 01:10 14,6 C 77 % 1024,9 hPa 0,0 l/m 1,8 km/h (1 Bft) O 90 10,6 C 14,3 C 4,0 km/h (1 Bft)
31.07.2013 01:15 14,4 C 77 % 1024,9 hPa 0,0 l/m 3,4 km/h (1 Bft) O-NO 67 10,4 C 14,1 C 4,8 km/h (1 Bft)
31.07.2013 01:20 14,3 C 77 % 1024,7 hPa 0,0 l/m 3,5 km/h (1 Bft) O-NO 67 10,3 C 14,1 C 4,7 km/h (1 Bft)
31.07.2013 01:25 14,1 C 78 % 1024,7 hPa 0,0 l/m 3,4 km/h (1 Bft) O-NO 67 10,3 C 13,8 C 2,9 km/h (1 Bft)
31.07.2013 01:30 14,0 C 78 % 1024,7 hPa 0,0 l/m 3,1 km/h (1 Bft) O-NO 67 10,2 C 13,7 C 3,7 km/h (1 Bft)
31.07.2013 01:35 13,9 C 79 % 1024,7 hPa 0,0 l/m 2,1 km/h (1 Bft) O-NO 67 10,3 C 13,4 C 3,4 km/h (1 Bft)
31.07.2013 01:40 14,1 C 79 % 1024,8 hPa 0,0 l/m 1,8 km/h (1 Bft) O-NO 67 10,5 C 13,4 C 1,9 km/h (1 Bft)
31.07.2013 01:45 13,5 C 79 % 1024,8 hPa 0,0 l/m 0,8 km/h (0 Bft) N-NO 22 9,9 C 13,1 C 0,0 km/h (0 Bft)
31.07.2013 01:50 13,2 C 79 % 1024,8 hPa 0,0 l/m 0,0 km/h (0 Bft) N-NO 22 9,6 C 12,9 C 0,0 km/h (0 Bft)
31.07.2013 01:55 13,7 C 80 % 1024,8 hPa 0,0 l/m 0,6 km/h (0 Bft) O 90 10,3 C 12,6 C 2,7 km/h (1 Bft)
31.07.2013 02:00 13,7 C 80 % 1024,8 hPa 0,0 l/m 1,4 km/h (1 Bft) O-NO 67 10,3 C 12,8 C 3,1 km/h (1 Bft)
31.07.2013 02:05 13,2 C 80 % 1024,8 hPa 0,0 l/m 1,1 km/h (1 Bft) O-SO 112 9,8 C 12,8 C 0,0 km/h (0 Bft)
31.07.2013 02:10 12,6 C 81 % 1024,8 hPa 0,0 l/m 0,3 km/h (0 Bft) NW 315 9,4 C 12,6 C 0,0 km/h (0 Bft)
31.07.2013 02:15 12,3 C 81 % 1024,8 hPa 0,0 l/m 0,0 km/h (0 Bft) NO 45 9,1 C 12,3 C 1,9 km/h (1 Bft)
31.07.2013 02:20 12,6 C 82 % 1024,8 hPa 0,0 l/m 0,3 km/h (0 Bft) NO 45 9,6 C 12,3 C 2,1 km/h (1 Bft)
31.07.2013 02:25 13,8 C 82 % 1024,8 hPa 0,0 l/m 1,8 km/h (1 Bft) O-NO 67 10,8 C 12,6 C 4,8 km/h (1 Bft)
31.07.2013 02:30 13,9 C 81 % 1024,8 hPa 0,0 l/m 2,7 km/h (1 Bft) O 90 10,7 C 12,9 C 3,7 km/h (1 Bft)
31.07.2013 02:35 13,8 C 81 % 1024,8 hPa 0,0 l/m 3,9 km/h (1 Bft) O 90 10,6 C 13,1 C 5,3 km/h (1 Bft)
31.07.2013 02:40 13,8 C 80 % 1024,8 hPa 0,0 l/m 4,0 km/h (1 Bft) O 90 10,4 C 13,3 C 3,4 km/h (1 Bft)
31.07.2013 02:45 13,8 C 80 % 1024,8 hPa 0,0 l/m 3,5 km/h (1 Bft) O 90 10,4 C 13,2 C 1,9 km/h (1 Bft)
31.07.2013 02:50 13,7 C 80 % 1024,8 hPa 0,0 l/m 2,4 km/h (1 Bft) O 90 10,3 C 13,1 C 0,0 km/h (0 Bft)
31.07.2013 02:55 13,3 C 80 % 1024,8 hPa 0,0 l/m 1,0 km/h (0 Bft) O-NO 67 9,9 C 12,6 C 2,7 km/h (1 Bft)
31.07.2013 03:00 13,7 C 81 % 1024,9 hPa 0,0 l/m 1,3 km/h (1 Bft) W-SW 247 10,5 C 12,4 C 3,4 km/h (1 Bft)
31.07.2013 03:05 14,0 C 80 % 1024,9 hPa 0,0 l/m 2,3 km/h (1 Bft) S 180 10,6 C 12,8 C 0,0 km/h (0 Bft)
31.07.2013 03:10 13,9 C 80 % 1024,9 hPa 0,0 l/m 2,1 km/h (1 Bft) O-SO 112 10,5 C 12,9 C 0,0 km/h (0 Bft)
31.07.2013 03:15 13,7 C 80 % 1024,9 hPa 0,0 l/m 1,3 km/h (1 Bft) O-NO 67 10,3 C 12,9 C 1,6 km/h (1 Bft)
31.07.2013 03:20 13,6 C 80 % 1024,8 hPa 0,0 l/m 1,4 km/h (1 Bft) NO 45 10,2 C 12,8 C 2,9 km/h (1 Bft)
31.07.2013 03:25 13,1 C 80 % 1024,8 hPa 0,0 l/m 1,0 km/h (0 Bft) SO 135 9,7 C 12,8 C 0,0 km/h (0 Bft)
31.07.2013 03:30 13,1 C 80 % 1024,8 hPa 0,0 l/m 1,1 km/h (1 Bft) O 90 9,7 C 12,9 C 4,2 km/h (1 Bft)
31.07.2013 03:35 13,6 C 81 % 1024,8 hPa 0,0 l/m 1,1 km/h (1 Bft) SO 135 10,4 C 13,0 C 0,0 km/h (0 Bft)
31.07.2013 03:40 13,4 C 80 % 1024,7 hPa 0,0 l/m 1,3 km/h (1 Bft) SO 135 10,0 C 13,1 C 6,1 km/h (2 Bft)
31.07.2013 03:45 13,4 C 81 % 1024,7 hPa 0,0 l/m 1,3 km/h (1 Bft) SO 135 10,2 C 13,3 C 8,0 km/h (2 Bft)
31.07.2013 03:50 13,7 C 81 % 1024,7 hPa 0,0 l/m 1,4 km/h (1 Bft) O-NO 67 10,5 C 13,4 C 2,1 km/h (1 Bft)
31.07.2013 03:55 13,7 C 81 % 1024,7 hPa 0,0 l/m 1,1 km/h (1 Bft) O-SO 112 10,5 C 13,5 C 0,0 km/h (0 Bft)
31.07.2013 04:00 13,8 C 81 % 1024,8 hPa 0,0 l/m 1,1 km/h (1 Bft) O-SO 112 10,6 C 13,4 C 3,2 km/h (1 Bft)
31.07.2013 04:05 13,8 C 80 % 1024,8 hPa 0,0 l/m 2,3 km/h (1 Bft) S 180 10,4 C 13,5 C 3,5 km/h (1 Bft)
31.07.2013 04:10 13,9 C 80 % 1024,8 hPa 0,0 l/m 2,7 km/h (1 Bft) S 180 10,5 C 13,5 C 8,2 km/h (2 Bft)
31.07.2013 04:15 14,1 C 80 % 1024,8 hPa 0,0 l/m 2,6 km/h (1 Bft) S-SO 157 10,7 C 13,8 C 2,3 km/h (1 Bft)
31.07.2013 04:20 14,2 C 80 % 1024,7 hPa 0,0 l/m 2,6 km/h (1 Bft) SO 135 10,8 C 13,9 C 3,2 km/h (1 Bft)
31.07.2013 04:25 14,3 C 79 % 1024,7 hPa 0,0 l/m 2,1 km/h (1 Bft) SO 135 10,7 C 14,1 C 1,9 km/h (1 Bft)
31.07.2013 04:30 14,3 C 79 % 1024,7 hPa 0,0 l/m 2,1 km/h (1 Bft) O 90 10,7 C 14,2 C 2,6 km/h (1 Bft)
31.07.2013 04:35 14,3 C 79 % 1024,7 hPa 0,0 l/m 1,8 km/h (1 Bft) O 90 10,7 C 14,2 C 2,3 km/h (1 Bft)
31.07.2013 04:40 14,2 C 79 % 1024,6 hPa 0,0 l/m 1,8 km/h (1 Bft) O 90 10,6 C 14,1 C 3,2 km/h (1 Bft)
31.07.2013 04:45 13,9 C 79 % 1024,6 hPa 0,0 l/m 1,4 km/h (1 Bft) O-NO 67 10,3 C 14,0 C 0,0 km/h (0 Bft)
31.07.2013 04:50 13,7 C 79 % 1024,6 hPa 0,0 l/m 1,1 km/h (1 Bft) SO 135 10,1 C 13,8 C 3,1 km/h (1 Bft)
31.07.2013 04:55 13,7 C 80 % 1024,6 hPa 0,0 l/m 1,8 km/h (1 Bft) S-SO 157 10,3 C 13,8 C 8,4 km/h (2 Bft)
31.07.2013 05:00 13,7 C 81 % 1024,6 hPa 0,0 l/m 2,1 km/h (1 Bft) O-SO 112 10,5 C 13,8 C 2,1 km/h (1 Bft)
31.07.2013 05:05 13,7 C 81 % 1024,6 hPa 0,0 l/m 1,8 km/h (1 Bft) N-NW 337 10,5 C 13,8 C 0,0 km/h (0 Bft)
31.07.2013 05:10 13,6 C 81 % 1024,6 hPa 0,0 l/m 1,3 km/h (1 Bft) SO 135 10,4 C 13,8 C 5,3 km/h (1 Bft)
31.07.2013 05:15 13,4 C 81 % 1024,6 hPa 0,0 l/m 1,1 km/h (1 Bft) O 90 10,2 C 13,7 C 2,4 km/h (1 Bft)
31.07.2013 05:20 13,3 C 81 % 1024,6 hPa 0,0 l/m 1,0 km/h (0 Bft) O-NO 67 10,1 C 13,5 C 0,0 km/h (0 Bft)
31.07.2013 05:25 13,2 C 82 % 1024,6 hPa 0,0 l/m 0,2 km/h (0 Bft) SO 135 10,2 C 13,1 C 0,0 km/h (0 Bft)
31.07.2013 05:30 13,2 C 82 % 1024,6 hPa 0,0 l/m 0,2 km/h (0 Bft) S-SO 157 10,2 C 13,1 C 1,9 km/h (1 Bft)
31.07.2013 05:35 13,7 C 82 % 1024,6 hPa 0,0 l/m 1,0 km/h (0 Bft) O-SO 112 10,7 C 13,1 C 0,0 km/h (0 Bft)
31.07.2013 05:40 13,8 C 82 % 1024,7 hPa 0,0 l/m 1,9 km/h (1 Bft) NO 45 10,8 C 13,4 C 10,1 km/h (2 Bft)
31.07.2013 05:45 14,0 C 82 % 1024,7 hPa 0,0 l/m 2,4 km/h (1 Bft) O 90 11,0 C 13,6 C 2,1 km/h (1 Bft)
31.07.2013 05:50 14,2 C 81 % 1024,7 hPa 0,0 l/m 2,1 km/h (1 Bft) O-SO 112 11,0 C 13,8 C 1,6 km/h (1 Bft)
31.07.2013 05:55 14,5 C 81 % 1024,7 hPa 0,0 l/m 1,8 km/h (1 Bft) S 180 11,3 C 14,1 C 3,7 km/h (1 Bft)
31.07.2013 06:00 14,6 C 81 % 1024,8 hPa 0,0 l/m 2,3 km/h (1 Bft) O 90 11,4 C 14,5 C 0,0 km/h (0 Bft)
31.07.2013 06:05 15,0 C 80 % 1024,8 hPa 0,0 l/m 2,9 km/h (1 Bft) O 90 11,6 C 14,8 C 3,2 km/h (1 Bft)
31.07.2013 06:10 15,0 C 79 % 1024,8 hPa 0,0 l/m 2,6 km/h (1 Bft) SO 135 11,4 C 15,0 C 9,2 km/h (2 Bft)
31.07.2013 06:15 14,9 C 79 % 1024,8 hPa 0,0 l/m 1,8 km/h (1 Bft) NO 45 11,3 C 15,1 C 0,0 km/h (0 Bft)
31.07.2013 06:20 14,9 C 79 % 1024,6 hPa 0,0 l/m 1,6 km/h (1 Bft) O-NO 67 11,3 C 15,1 C 1,8 km/h (1 Bft)
31.07.2013 06:25 14,8 C 79 % 1024,6 hPa 0,0 l/m 1,3 km/h (1 Bft) O 90 11,2 C 15,0 C 3,4 km/h (1 Bft)
31.07.2013 06:30 14,9 C 79 % 1024,6 hPa 0,0 l/m 1,4 km/h (1 Bft) SO 135 11,3 C 15,0 C 2,9 km/h (1 Bft)
31.07.2013 06:35 15,0 C 78 % 1024,6 hPa 0,0 l/m 1,8 km/h (1 Bft) SO 135 11,2 C 15,0 C 3,2 km/h (1 Bft)
31.07.2013 06:40 15,0 C 78 % 1024,6 hPa 0,0 l/m 1,8 km/h (1 Bft) W-NW 292 11,2 C 15,1 C 2,6 km/h (1 Bft)
31.07.2013 06:45 15,1 C 78 % 1024,6 hPa 0,0 l/m 2,6 km/h (1 Bft) O-SO 112 11,3 C 15,2 C 8,4 km/h (2 Bft)
31.07.2013 06:50 15,2 C 78 % 1024,6 hPa 0,0 l/m 3,7 km/h (1 Bft) S 180 11,4 C 15,4 C 5,8 km/h (2 Bft)
31.07.2013 06:55 15,4 C 78 % 1024,6 hPa 0,0 l/m 4,7 km/h (1 Bft) S-SW 202 11,6 C 15,7 C 9,7 km/h (2 Bft)
31.07.2013 07:00 15,6 C 78 % 1024,5 hPa 0,0 l/m 4,7 km/h (1 Bft) S-SW 202 11,8 C 15,8 C 6,1 km/h (2 Bft)
31.07.2013 07:05 15,7 C 77 % 1024,5 hPa 0,0 l/m 4,7 km/h (1 Bft) S 180 11,7 C 16,0 C 5,5 km/h (1 Bft)
31.07.2013 07:10 15,7 C 77 % 1024,5 hPa 0,0 l/m 4,7 km/h (1 Bft) S 180 11,7 C 16,0 C 6,4 km/h (2 Bft)
31.07.2013 07:15 15,9 C 77 % 1024,5 hPa 0,0 l/m 4,8 km/h (1 Bft) O-SO 112 11,9 C 16,2 C 7,2 km/h (2 Bft)
31.07.2013 07:20 16,0 C 76 % 1024,8 hPa 0,0 l/m 4,2 km/h (1 Bft) SO 135 11,8 C 16,3 C 3,1 km/h (1 Bft)
31.07.2013 07:25 16,1 C 76 % 1024,8 hPa 0,0 l/m 4,2 km/h (1 Bft) SO 135 11,9 C 16,5 C 3,4 km/h (1 Bft)
31.07.2013 07:30 16,2 C 75 % 1024,8 hPa 0,0 l/m 4,3 km/h (1 Bft) S 180 11,8 C 16,6 C 5,8 km/h (2 Bft)
31.07.2013 07:35 16,3 C 75 % 1024,8 hPa 0,0 l/m 4,3 km/h (1 Bft) S 180 11,9 C 16,7 C 7,4 km/h (2 Bft)
31.07.2013 07:40 16,4 C 75 % 1024,8 hPa 0,0 l/m 4,7 km/h (1 Bft) S 180 12,0 C 16,8 C 6,6 km/h (2 Bft)
31.07.2013 07:45 16,6 C 74 % 1024,8 hPa 0,0 l/m 5,6 km/h (1 Bft) S-SO 157 11,9 C 16,9 C 11,7 km/h (2 Bft)
31.07.2013 07:50 16,7 C 73 % 1024,8 hPa 0,0 l/m 6,1 km/h (2 Bft) S-SO 157 11,8 C 17,0 C 7,7 km/h (2 Bft)
31.07.2013 07:55 16,7 C 73 % 1024,8 hPa 0,0 l/m 6,3 km/h (2 Bft) S 180 11,8 C 17,1 C 12,2 km/h (2 Bft)
31.07.2013 08:00 16,7 C 73 % 1024,8 hPa 0,0 l/m 6,4 km/h (2 Bft) S-SO 157 11,8 C 17,2 C 9,7 km/h (2 Bft)
31.07.2013 08:05 16,7 C 73 % 1024,8 hPa 0,0 l/m 6,4 km/h (2 Bft) S-SW 202 11,8 C 17,2 C 7,4 km/h (2 Bft)
31.07.2013 08:10 16,7 C 72 % 1024,8 hPa 0,0 l/m 6,3 km/h (2 Bft) S-SW 202 11,6 C 17,2 C 8,4 km/h (2 Bft)
31.07.2013 08:15 16,9 C 72 % 1024,8 hPa 0,0 l/m 5,6 km/h (1 Bft) S 180 11,8 C 17,3 C 10,6 km/h (2 Bft)
31.07.2013 08:20 17,1 C 72 % 1024,9 hPa 0,0 l/m 5,3 km/h (1 Bft) W 270 12,0 C 17,5 C 4,8 km/h (1 Bft)
31.07.2013 08:25 17,4 C 71 % 1024,9 hPa 0,0 l/m 5,6 km/h (1 Bft) S 180 12,1 C 17,7 C 7,4 km/h (2 Bft)
31.07.2013 08:30 17,6 C 71 % 1024,9 hPa 0,0 l/m 5,5 km/h (1 Bft) S 180 12,3 C 17,9 C 4,3 km/h (1 Bft)
31.07.2013 08:35 18,3 C 69 % 1024,9 hPa 0,0 l/m 4,3 km/h (1 Bft) S-SW 202 12,5 C 18,4 C 4,3 km/h (1 Bft)
31.07.2013 08:40 18,4 C 69 % 1024,9 hPa 0,0 l/m 4,0 km/h (1 Bft) S 180 12,6 C 18,6 C 5,5 km/h (1 Bft)
31.07.2013 08:45 18,7 C 68 % 1024,9 hPa 0,0 l/m 4,3 km/h (1 Bft) S-SW 202 12,7 C 18,9 C 5,1 km/h (1 Bft)
31.07.2013 08:50 19,3 C 68 % 1024,9 hPa 0,0 l/m 4,2 km/h (1 Bft) S 180 13,2 C 19,2 C 5,0 km/h (1 Bft)
31.07.2013 08:55 19,6 C 67 % 1024,9 hPa 0,0 l/m 3,1 km/h (1 Bft) S-SO 157 13,3 C 19,8 C 3,9 km/h (1 Bft)
31.07.2013 09:00 20,6 C 64 % 1025,1 hPa 0,0 l/m 3,2 km/h (1 Bft) S 180 13,5 C 20,4 C 9,7 km/h (2 Bft)
31.07.2013 09:05 20,1 C 64 % 1025,1 hPa 0,0 l/m 4,5 km/h (1 Bft) S-SO 157 13,1 C 20,6 C 4,0 km/h (1 Bft)
31.07.2013 09:10 19,8 C 64 % 1025,1 hPa 0,0 l/m 5,1 km/h (1 Bft) S 180 12,8 C 20,6 C 4,8 km/h (1 Bft)
31.07.2013 09:15 20,4 C 63 % 1025,1 hPa 0,0 l/m 4,5 km/h (1 Bft) S 180 13,1 C 20,6 C 8,5 km/h (2 Bft)
31.07.2013 09:20 20,3 C 63 % 1025,1 hPa 0,0 l/m 5,5 km/h (1 Bft) S-SO 157 13,0 C 20,7 C 8,2 km/h (2 Bft)
31.07.2013 09:25 20,2 C 63 % 1025,1 hPa 0,0 l/m 6,0 km/h (2 Bft) S-SW 202 12,9 C 20,7 C 5,1 km/h (1 Bft)
31.07.2013 09:30 20,0 C 63 % 1025,1 hPa 0,0 l/m 5,1 km/h (1 Bft) S-SW 202 12,7 C 20,6 C 13,2 km/h (3 Bft)
31.07.2013 09:35 19,8 C 63 % 1025,1 hPa 0,0 l/m 5,5 km/h (1 Bft) W-NW 292 12,5 C 20,4 C 5,6 km/h (1 Bft)
31.07.2013 09:40 19,5 C 63 % 1025,1 hPa 0,0 l/m 6,4 km/h (2 Bft) S 180 12,3 C 20,3 C 9,2 km/h (2 Bft)
31.07.2013 09:45 19,9 C 64 % 1025,1 hPa 0,0 l/m 6,0 km/h (2 Bft) O 90 12,9 C 20,2 C 15,0 km/h (3 Bft)
31.07.2013 09:50 20,0 C 63 % 1025,1 hPa 0,0 l/m 5,1 km/h (1 Bft) S-SO 157 12,7 C 20,4 C 9,3 km/h (2 Bft)
31.07.2013 09:55 20,9 C 61 % 1025,1 hPa 0,0 l/m 4,5 km/h (1 Bft) SO 135 13,1 C 20,8 C 4,5 km/h (1 Bft)
31.07.2013 10:00 20,4 C 60 % 1025,2 hPa 0,0 l/m 5,5 km/h (1 Bft) S 180 12,4 C 21,1 C 6,3 km/h (2 Bft)
31.07.2013 10:05 20,5 C 59 % 1025,2 hPa 0,0 l/m 6,6 km/h (2 Bft) S-SO 157 12,2 C 21,0 C 7,2 km/h (2 Bft)
31.07.2013 10:10 20,6 C 59 % 1025,2 hPa 0,0 l/m 7,4 km/h (2 Bft) S-SW 202 12,3 C 20,7 C 11,9 km/h (2 Bft)
31.07.2013 10:15 20,8 C 59 % 1025,2 hPa 0,0 l/m 8,0 km/h (2 Bft) S-SW 202 12,5 C 20,5 C 11,9 km/h (2 Bft)
31.07.2013 10:20 22,0 C 57 % 1025,2 hPa 0,0 l/m 7,7 km/h (2 Bft) W 270 13,1 C 21,0 C 5,0 km/h (1 Bft)
31.07.2013 10:25 24,7 C 48 % 1025,2 hPa 0,0 l/m 7,9 km/h (2 Bft) S 180 12,9 C 23,3 C 17,4 km/h (3 Bft)
31.07.2013 10:30 24,5 C 49 % 1025,2 hPa 0,0 l/m 7,6 km/h (2 Bft) O-SO 112 13,1 C 24,2 C 8,0 km/h (2 Bft)
31.07.2013 10:35 24,0 C 48 % 1025,2 hPa 0,0 l/m 9,0 km/h (2 Bft) O-SO 112 12,3 C 24,4 C 19,6 km/h (3 Bft)
31.07.2013 10:40 22,9 C 51 % 1025,9 hPa 0,0 l/m 10,1 km/h (2 Bft) O 90 12,2 C 23,3 C 18,5 km/h (3 Bft)
31.07.2013 10:45 22,7 C 53 % 1025,9 hPa 0,0 l/m 10,0 km/h (2 Bft) S 180 12,6 C 22,5 C 20,9 km/h (4 Bft)
31.07.2013 10:50 23,0 C 50 % 1025,9 hPa 0,0 l/m 8,5 km/h (2 Bft) S 180 12,0 C 22,5 C 9,2 km/h (2 Bft)
31.07.2013 10:55 25,2 C 46 % 1025,9 hPa 0,0 l/m 7,6 km/h (2 Bft) S-SW 202 12,7 C 24,1 C 7,9 km/h (2 Bft)
31.07.2013 11:00 25,7 C 46 % 1025,8 hPa 0,0 l/m 6,3 km/h (2 Bft) SW 225 13,2 C 25,2 C 8,0 km/h (2 Bft)
31.07.2013 11:05 25,4 C 41 % 1025,8 hPa 0,0 l/m 7,1 km/h (2 Bft) S 180 11,2 C 25,6 C 14,0 km/h (3 Bft)
31.07.2013 11:10 25,3 C 43 % 1025,8 hPa 0,0 l/m 8,7 km/h (2 Bft) S-SO 157 11,8 C 24,8 C 12,7 km/h (3 Bft)
31.07.2013 11:15 25,5 C 42 % 1025,8 hPa 0,0 l/m 9,7 km/h (2 Bft) S 180 11,6 C 24,3 C 10,9 km/h (2 Bft)
31.07.2013 11:20 26,1 C 43 % 1025,8 hPa 0,0 l/m 8,2 km/h (2 Bft) S 180 12,5 C 24,8 C 5,1 km/h (1 Bft)
31.07.2013 11:25 25,0 C 41 % 1025,8 hPa 0,0 l/m 9,0 km/h (2 Bft) SO 135 10,8 C 24,6 C 25,6 km/h (4 Bft)
31.07.2013 11:30 25,4 C 43 % 1025,8 hPa 0,0 l/m 9,7 km/h (2 Bft) S-SW 202 11,9 C 24,1 C 8,5 km/h (2 Bft)
31.07.2013 11:35 26,1 C 40 % 1025,8 hPa 0,0 l/m 8,7 km/h (2 Bft) S 180 11,4 C 24,3 C 7,7 km/h (2 Bft)
31.07.2013 11:40 25,6 C 41 % 1025,9 hPa 0,0 l/m 9,7 km/h (2 Bft) S 180 11,4 C 23,8 C 10,1 km/h (2 Bft)
31.07.2013 11:45 25,7 C 41 % 1025,9 hPa 0,0 l/m 10,0 km/h (2 Bft) W-SW 247 11,4 C 23,2 C 10,3 km/h (2 Bft)
31.07.2013 11:50 26,1 C 40 % 1025,9 hPa 0,0 l/m 9,2 km/h (2 Bft) W-SW 247 11,4 C 23,1 C 7,2 km/h (2 Bft)
31.07.2013 11:55 25,6 C 41 % 1025,9 hPa 0,0 l/m 10,5 km/h (2 Bft) S-SW 202 11,4 C 23,1 C 12,6 km/h (3 Bft)
31.07.2013 12:00 25,7 C 42 % 1025,8 hPa 0,0 l/m 10,0 km/h (2 Bft) S 180 11,8 C 23,4 C 6,0 km/h (2 Bft)
31.07.2013 12:05 26,1 C 40 % 1025,8 hPa 0,0 l/m 8,5 km/h (2 Bft) W-SW 247 11,4 C 24,5 C 6,6 km/h (2 Bft)
31.07.2013 12:10 26,1 C 41 % 1025,8 hPa 0,0 l/m 7,7 km/h (2 Bft) N 360 11,8 C 25,0 C 9,2 km/h (2 Bft)
31.07.2013 12:15 26,5 C 40 % 1025,8 hPa 0,0 l/m 7,1 km/h (2 Bft) SO 135 11,8 C 25,5 C 9,8 km/h (2 Bft)
31.07.2013 12:20 26,0 C 42 % 1025,9 hPa 0,0 l/m 7,4 km/h (2 Bft) S-SW 202 12,1 C 25,6 C 14,8 km/h (3 Bft)
31.07.2013 12:25 26,1 C 42 % 1025,9 hPa 0,0 l/m 8,2 km/h (2 Bft) S-SO 157 12,2 C 25,4 C 12,1 km/h (2 Bft)
31.07.2013 12:30 25,7 C 43 % 1025,9 hPa 0,0 l/m 8,4 km/h (2 Bft) S 180 12,2 C 25,4 C 7,7 km/h (2 Bft)
31.07.2013 12:35 26,1 C 44 % 1025,9 hPa 0,0 l/m 7,6 km/h (2 Bft) S 180 12,9 C 25,6 C 5,8 km/h (2 Bft)
31.07.2013 12:40 26,3 C 40 % 1025,8 hPa 0,0 l/m 7,2 km/h (2 Bft) S 180 11,6 C 25,9 C 13,8 km/h (3 Bft)
31.07.2013 12:45 25,9 C 42 % 1025,8 hPa 0,0 l/m 8,2 km/h (2 Bft) S-SW 202 12,0 C 25,5 C 5,6 km/h (1 Bft)
31.07.2013 12:50 26,2 C 42 % 1025,8 hPa 0,0 l/m 7,9 km/h (2 Bft) S-SW 202 12,3 C 25,7 C 9,5 km/h (2 Bft)
31.07.2013 12:55 26,0 C 44 % 1025,8 hPa 0,0 l/m 6,1 km/h (2 Bft) S 180 12,8 C 26,5 C 6,3 km/h (2 Bft)
31.07.2013 13:00 26,2 C 44 % 1025,9 hPa 0,0 l/m 6,3 km/h (2 Bft) S 180 13,0 C 26,7 C 11,6 km/h (2 Bft)
31.07.2013 13:05 25,1 C 46 % 1025,9 hPa 0,0 l/m 7,6 km/h (2 Bft) S 180 12,7 C 26,0 C 11,1 km/h (2 Bft)
31.07.2013 13:10 25,6 C 46 % 1025,9 hPa 0,0 l/m 7,9 km/h (2 Bft) SW 225 13,1 C 25,7 C 8,9 km/h (2 Bft)
31.07.2013 13:15 25,7 C 45 % 1025,9 hPa 0,0 l/m 7,6 km/h (2 Bft) S-SW 202 12,9 C 26,2 C 10,6 km/h (2 Bft)
31.07.2013 13:20 25,0 C 47 % 1025,8 hPa 0,0 l/m 7,7 km/h (2 Bft) S 180 12,9 C 25,8 C 10,9 km/h (2 Bft)
31.07.2013 13:25 26,0 C 45 % 1025,8 hPa 0,0 l/m 7,6 km/h (2 Bft) S-SO 157 13,1 C 25,7 C 3,9 km/h (1 Bft)
31.07.2013 13:30 26,4 C 44 % 1025,8 hPa 0,0 l/m 6,3 km/h (2 Bft) S 180 13,1 C 26,6 C 4,5 km/h (1 Bft)
31.07.2013 13:35 26,3 C 43 % 1025,8 hPa 0,0 l/m 5,1 km/h (1 Bft) W-SW 247 12,7 C 27,0 C 2,3 km/h (1 Bft)
31.07.2013 13:40 26,8 C 41 % 1025,8 hPa 0,0 l/m 5,8 km/h (2 Bft) S 180 12,4 C 27,4 C 6,9 km/h (2 Bft)
31.07.2013 13:45 26,0 C 44 % 1025,8 hPa 0,0 l/m 5,0 km/h (1 Bft) S 180 12,8 C 27,5 C 10,1 km/h (2 Bft)
31.07.2013 13:50 25,7 C 46 % 1025,8 hPa 0,0 l/m 6,0 km/h (2 Bft) W-SW 247 13,2 C 27,1 C 5,6 km/h (1 Bft)
31.07.2013 13:55 25,3 C 49 % 1025,8 hPa 0,0 l/m 6,8 km/h (2 Bft) S 180 13,8 C 26,5 C 8,0 km/h (2 Bft)
31.07.2013 14:00 26,1 C 46 % 1025,6 hPa 0,0 l/m 6,3 km/h (2 Bft) S 180 13,6 C 26,6 C 9,3 km/h (2 Bft)
31.07.2013 14:05 26,3 C 45 % 1025,6 hPa 0,0 l/m 6,6 km/h (2 Bft) W-NW 292 13,4 C 26,9 C 9,7 km/h (2 Bft)
31.07.2013 14:10 26,3 C 44 % 1025,6 hPa 0,0 l/m 7,2 km/h (2 Bft) S-SW 202 13,1 C 27,0 C 10,1 km/h (2 Bft)
31.07.2013 14:15 26,6 C 45 % 1025,6 hPa 0,0 l/m 7,2 km/h (2 Bft) SW 225 13,7 C 27,1 C 7,4 km/h (2 Bft)
31.07.2013 14:20 26,5 C 41 % 1025,6 hPa 0,0 l/m 7,2 km/h (2 Bft) S-SW 202 12,2 C 27,1 C 6,1 km/h (2 Bft)
31.07.2013 14:25 26,5 C 43 % 1025,6 hPa 0,0 l/m 6,8 km/h (2 Bft) W-SW 247 12,9 C 27,2 C 4,3 km/h (1 Bft)
31.07.2013 14:30 26,8 C 44 % 1025,6 hPa 0,0 l/m 6,6 km/h (2 Bft) W-SW 247 13,5 C 27,4 C 10,5 km/h (2 Bft)
31.07.2013 14:35 27,0 C 43 % 1025,6 hPa 0,0 l/m 6,3 km/h (2 Bft) S 180 13,3 C 27,3 C 0,0 km/h (0 Bft)
31.07.2013 14:40 26,7 C 43 % 1025,6 hPa 0,0 l/m 6,4 km/h (2 Bft) S-SO 157 13,1 C 27,7 C 9,5 km/h (2 Bft)
31.07.2013 14:45 27,0 C 43 % 1025,6 hPa 0,0 l/m 5,6 km/h (1 Bft) NO 45 13,3 C 27,8 C 6,0 km/h (2 Bft)
31.07.2013 14:50 27,3 C 44 % 1025,6 hPa 0,0 l/m 6,8 km/h (2 Bft) W-SW 247 14,0 C 27,9 C 15,1 km/h (3 Bft)
31.07.2013 14:55 26,6 C 42 % 1025,6 hPa 0,0 l/m 7,4 km/h (2 Bft) W-SW 247 12,6 C 27,5 C 7,2 km/h (2 Bft)
31.07.2013 15:00 26,9 C 43 % 1025,3 hPa 0,0 l/m 7,7 km/h (2 Bft) S-SO 157 13,2 C 27,4 C 13,0 km/h (3 Bft)
31.07.2013 15:05 26,5 C 42 % 1025,3 hPa 0,0 l/m 6,9 km/h (2 Bft) S 180 12,5 C 27,5 C 6,6 km/h (2 Bft)
31.07.2013 15:10 26,7 C 41 % 1025,3 hPa 0,0 l/m 7,6 km/h (2 Bft) S-SW 202 12,3 C 27,5 C 9,7 km/h (2 Bft)
31.07.2013 15:15 26,7 C 40 % 1025,3 hPa 0,0 l/m 6,3 km/h (2 Bft) SO 135 12,0 C 27,8 C 2,4 km/h (1 Bft)
31.07.2013 15:20 26,5 C 42 % 1025,4 hPa 0,0 l/m 6,1 km/h (2 Bft) W-SW 247 12,5 C 28,0 C 4,5 km/h (1 Bft)
31.07.2013 15:25 26,8 C 45 % 1025,4 hPa 0,0 l/m 6,0 km/h (2 Bft) S 180 13,9 C 28,1 C 9,3 km/h (2 Bft)
31.07.2013 15:30 27,1 C 44 % 1025,4 hPa 0,0 l/m 5,8 km/h (2 Bft) W-SW 247 13,8 C 28,2 C 4,0 km/h (1 Bft)
31.07.2013 15:35 26,6 C 42 % 1025,4 hPa 0,0 l/m 6,9 km/h (2 Bft) S-SW 202 12,6 C 28,1 C 11,3 km/h (2 Bft)
31.07.2013 15:40 26,9 C 41 % 1025,3 hPa 0,0 l/m 6,8 km/h (2 Bft) S-SW 202 12,5 C 28,0 C 11,6 km/h (2 Bft)
31.07.2013 15:45 26,7 C 43 % 1025,3 hPa 0,0 l/m 6,6 km/h (2 Bft) W 270 13,1 C 28,3 C 5,0 km/h (1 Bft)
31.07.2013 15:50 26,1 C 42 % 1025,3 hPa 0,0 l/m 6,4 km/h (2 Bft) S 180 12,2 C 28,2 C 5,3 km/h (1 Bft)
31.07.2013 15:55 26,8 C 42 % 1025,3 hPa 0,0 l/m 5,3 km/h (1 Bft) W-NW 292 12,8 C 28,4 C 8,9 km/h (2 Bft)
31.07.2013 16:00 27,0 C 43 % 1025,4 hPa 0,0 l/m 5,8 km/h (2 Bft) W-NW 292 13,3 C 28,5 C 8,4 km/h (2 Bft)
31.07.2013 16:05 26,5 C 40 % 1025,4 hPa 0,0 l/m 6,3 km/h (2 Bft) S-SO 157 11,8 C 28,7 C 9,2 km/h (2 Bft)
31.07.2013 16:10 26,7 C 42 % 1025,4 hPa 0,0 l/m 6,4 km/h (2 Bft) W-SW 247 12,7 C 28,5 C 8,0 km/h (2 Bft)
31.07.2013 16:15 26,4 C 41 % 1025,4 hPa 0,0 l/m 6,6 km/h (2 Bft) W-SW 247 12,1 C 28,7 C 11,9 km/h (2 Bft)
31.07.2013 16:20 26,3 C 42 % 1025,4 hPa 0,0 l/m 6,1 km/h (2 Bft) SW 225 12,3 C 28,7 C 8,9 km/h (2 Bft)
31.07.2013 16:25 26,6 C 44 % 1025,4 hPa 0,0 l/m 7,1 km/h (2 Bft) S-SW 202 13,3 C 28,6 C 7,2 km/h (2 Bft)
31.07.2013 16:30 26,2 C 43 % 1025,4 hPa 0,0 l/m 7,1 km/h (2 Bft) S-SW 202 12,6 C 28,6 C 5,5 km/h (1 Bft)
31.07.2013 16:35 26,0 C 44 % 1025,4 hPa 0,0 l/m 6,3 km/h (2 Bft) S-SW 202 12,8 C 28,9 C 10,3 km/h (2 Bft)
31.07.2013 16:40 25,4 C 45 % 1025,5 hPa 0,0 l/m 6,0 km/h (2 Bft) SW 225 12,6 C 28,9 C 3,5 km/h (1 Bft)
31.07.2013 16:45 24,9 C 48 % 1025,5 hPa 0,0 l/m 6,4 km/h (2 Bft) S 180 13,1 C 28,9 C 4,7 km/h (1 Bft)
31.07.2013 16:50 24,9 C 49 % 1025,5 hPa 0,0 l/m 6,3 km/h (2 Bft) S 180 13,4 C 29,0 C 10,6 km/h (2 Bft)
31.07.2013 16:55 24,2 C 49 % 1025,5 hPa 0,0 l/m 6,8 km/h (2 Bft) W-SW 247 12,8 C 27,9 C 3,7 km/h (1 Bft)
31.07.2013 17:00 24,5 C 50 % 1025,2 hPa 0,0 l/m 6,4 km/h (2 Bft) W-SW 247 13,4 C 28,4 C 9,2 km/h (2 Bft)
31.07.2013 17:05 24,3 C 49 % 1025,2 hPa 0,0 l/m 5,0 km/h (1 Bft) S-SW 202 12,9 C 29,0 C 6,8 km/h (2 Bft)
31.07.2013 17:10 24,1 C 51 % 1025,2 hPa 0,0 l/m 6,0 km/h (2 Bft) W-SW 247 13,3 C 29,2 C 9,2 km/h (2 Bft)
31.07.2013 17:15 23,5 C 51 % 1025,2 hPa 0,0 l/m 6,1 km/h (2 Bft) S-SW 202 12,8 C 27,8 C 3,4 km/h (1 Bft)
31.07.2013 17:20 23,1 C 53 % 1025,1 hPa 0,0 l/m 4,8 km/h (1 Bft) S-SO 157 13,0 C 26,6 C 4,8 km/h (1 Bft)
31.07.2013 17:25 23,8 C 52 % 1025,1 hPa 0,0 l/m 3,9 km/h (1 Bft) SW 225 13,3 C 27,1 C 9,5 km/h (2 Bft)
31.07.2013 17:30 23,5 C 52 % 1025,1 hPa 0,0 l/m 5,5 km/h (1 Bft) W-NW 292 13,1 C 27,1 C 7,2 km/h (2 Bft)
31.07.2013 17:35 23,1 C 53 % 1025,1 hPa 0,0 l/m 6,0 km/h (2 Bft) S-SO 157 13,0 C 26,2 C 3,4 km/h (1 Bft)
31.07.2013 17:40 23,2 C 53 % 1025,1 hPa 0,0 l/m 4,7 km/h (1 Bft) W-SW 247 13,1 C 26,4 C 6,4 km/h (2 Bft)
31.07.2013 17:45 23,7 C 53 % 1025,1 hPa 0,0 l/m 3,4 km/h (1 Bft) W-SW 247 13,5 C 27,7 C 2,7 km/h (1 Bft)
31.07.2013 17:50 23,6 C 54 % 1025,1 hPa 0,0 l/m 3,4 km/h (1 Bft) S 180 13,7 C 28,5 C 8,4 km/h (2 Bft)
31.07.2013 17:55 23,7 C 51 % 1025,1 hPa 0,0 l/m 3,7 km/h (1 Bft) S 180 13,0 C 29,3 C 8,9 km/h (2 Bft)
31.07.2013 18:00 23,3 C 53 % 1024,8 hPa 0,0 l/m 4,5 km/h (1 Bft) SW 225 13,2 C 28,5 C 3,5 km/h (1 Bft)
31.07.2013 18:05 23,2 C 52 % 1024,8 hPa 0,0 l/m 4,3 km/h (1 Bft) S 180 12,8 C 27,0 C 6,4 km/h (2 Bft)
31.07.2013 18:10 23,5 C 52 % 1024,8 hPa 0,0 l/m 4,2 km/h (1 Bft) S 180 13,1 C 27,7 C 5,5 km/h (1 Bft)
31.07.2013 18:15 23,5 C 52 % 1024,8 hPa 0,0 l/m 6,0 km/h (2 Bft) S-SO 157 13,1 C 28,0 C 7,2 km/h (2 Bft)
31.07.2013 18:20 23,4 C 52 % 1024,9 hPa 0,0 l/m 5,6 km/h (1 Bft) S-SW 202 13,0 C 28,4 C 6,4 km/h (2 Bft)
31.07.2013 18:25 23,1 C 53 % 1024,9 hPa 0,0 l/m 4,2 km/h (1 Bft) S 180 13,0 C 27,6 C 3,7 km/h (1 Bft)
31.07.2013 18:30 23,1 C 54 % 1024,9 hPa 0,0 l/m 4,0 km/h (1 Bft) S-SW 202 13,3 C 27,8 C 4,2 km/h (1 Bft)
31.07.2013 18:35 23,5 C 53 % 1024,9 hPa 0,0 l/m 4,3 km/h (1 Bft) S 180 13,4 C 28,6 C 8,0 km/h (2 Bft)
31.07.2013 18:40 23,5 C 51 % 1024,3 hPa 0,0 l/m 4,7 km/h (1 Bft) SW 225 12,8 C 28,7 C 6,6 km/h (2 Bft)
31.07.2013 18:45 23,5 C 52 % 1024,3 hPa 0,0 l/m 5,0 km/h (1 Bft) S 180 13,1 C 28,6 C 4,8 km/h (1 Bft)
31.07.2013 18:50 23,3 C 51 % 1024,3 hPa 0,0 l/m 5,3 km/h (1 Bft) W-SW 247 12,6 C 28,6 C 6,0 km/h (2 Bft)
31.07.2013 18:55 23,1 C 51 % 1024,3 hPa 0,0 l/m 4,7 km/h (1 Bft) S 180 12,4 C 28,4 C 2,3 km/h (1 Bft)
31.07.2013 19:00 23,0 C 52 % 1024,1 hPa 0,0 l/m 4,2 km/h (1 Bft) S 180 12,6 C 28,7 C 6,6 km/h (2 Bft)
31.07.2013 19:05 22,8 C 54 % 1024,1 hPa 0,0 l/m 4,3 km/h (1 Bft) S-SW 202 13,0 C 28,6 C 3,7 km/h (1 Bft)
31.07.2013 19:10 22,8 C 55 % 1024,1 hPa 0,0 l/m 4,2 km/h (1 Bft) SW 225 13,3 C 28,6 C 2,4 km/h (1 Bft)
31.07.2013 19:15 22,6 C 55 % 1024,1 hPa 0,0 l/m 2,6 km/h (1 Bft) S-SW 202 13,1 C 28,9 C 2,7 km/h (1 Bft)
31.07.2013 19:20 22,6 C 55 % 1024,1 hPa 0,0 l/m 2,4 km/h (1 Bft) S-SW 202 13,1 C 28,9 C 5,1 km/h (1 Bft)
31.07.2013 19:25 22,4 C 56 % 1024,1 hPa 0,0 l/m 2,7 km/h (1 Bft) S 180 13,2 C 29,0 C 2,9 km/h (1 Bft)
31.07.2013 19:30 22,4 C 56 % 1024,1 hPa 0,0 l/m 2,9 km/h (1 Bft) S 180 13,2 C 28,8 C 1,6 km/h (1 Bft)
31.07.2013 19:35 22,2 C 56 % 1024,1 hPa 0,0 l/m 2,6 km/h (1 Bft) S-SW 202 13,0 C 28,8 C 2,6 km/h (1 Bft)
31.07.2013 19:40 22,0 C 57 % 1023,9 hPa 0,0 l/m 1,4 km/h (1 Bft) W-SW 247 13,1 C 28,8 C 2,9 km/h (1 Bft)
31.07.2013 19:45 21,8 C 57 % 1023,9 hPa 0,0 l/m 1,1 km/h (1 Bft) S 180 12,9 C 28,8 C 1,6 km/h (1 Bft)
31.07.2013 19:50 21,8 C 57 % 1023,9 hPa 0,0 l/m 1,0 km/h (0 Bft) S 180 12,9 C 28,8 C 0,0 km/h (0 Bft)
31.07.2013 19:55 21,8 C 57 % 1023,9 hPa 0,0 l/m 0,5 km/h (0 Bft) S 180 12,9 C 28,8 C 1,6 km/h (1 Bft)
31.07.2013 20:00 21,8 C 57 % 1024,1 hPa 0,0 l/m 0,5 km/h (0 Bft) W-SW 247 12,9 C 28,5 C 1,6 km/h (1 Bft)
31.07.2013 20:05 21,5 C 58 % 1024,1 hPa 0,0 l/m 0,5 km/h (0 Bft) S-SO 157 12,9 C 28,0 C 1,9 km/h (1 Bft)
31.07.2013 20:10 21,4 C 58 % 1024,1 hPa 0,0 l/m 0,5 km/h (0 Bft) S 180 12,8 C 27,8 C 1,8 km/h (1 Bft)
31.07.2013 20:15 21,2 C 58 % 1024,1 hPa 0,0 l/m 1,0 km/h (0 Bft) S-SO 157 12,6 C 27,0 C 0,0 km/h (0 Bft)
31.07.2013 20:20 21,1 C 59 % 1024,2 hPa 0,0 l/m 0,8 km/h (0 Bft) SO 135 12,8 C 26,5 C 0,0 km/h (0 Bft)
31.07.2013 20:25 20,8 C 59 % 1024,2 hPa 0,0 l/m 0,3 km/h (0 Bft) O-NO 67 12,5 C 26,0 C 0,0 km/h (0 Bft)
31.07.2013 20:30 20,6 C 60 % 1024,2 hPa 0,0 l/m 1,1 km/h (1 Bft) O-NO 67 12,6 C 25,2 C 3,5 km/h (1 Bft)
31.07.2013 20:35 20,2 C 63 % 1024,2 hPa 0,0 l/m 3,1 km/h (1 Bft) O 90 12,9 C 23,8 C 4,5 km/h (1 Bft)
31.07.2013 20:40 19,8 C 65 % 1024,1 hPa 0,0 l/m 3,7 km/h (1 Bft) O 90 13,0 C 23,0 C 3,7 km/h (1 Bft)
31.07.2013 20:45 19,4 C 66 % 1024,1 hPa 0,0 l/m 3,9 km/h (1 Bft) O 90 12,9 C 21,2 C 3,1 km/h (1 Bft)
31.07.2013 20:50 19,2 C 67 % 1024,1 hPa 0,0 l/m 3,9 km/h (1 Bft) O 90 12,9 C 20,2 C 4,5 km/h (1 Bft)
31.07.2013 20:55 18,9 C 67 % 1024,1 hPa 0,0 l/m 4,0 km/h (1 Bft) O 90 12,6 C 19,2 C 3,5 km/h (1 Bft)
31.07.2013 21:00 18,2 C 68 % 1024,2 hPa 0,0 l/m 4,0 km/h (1 Bft) O 90 12,2 C 18,6 C 4,2 km/h (1 Bft)
31.07.2013 21:05 18,0 C 69 % 1024,2 hPa 0,0 l/m 4,2 km/h (1 Bft) NO 45 12,2 C 18,1 C 5,3 km/h (1 Bft)
31.07.2013 21:10 17,7 C 70 % 1024,2 hPa 0,0 l/m 4,7 km/h (1 Bft) O 90 12,2 C 17,8 C 4,8 km/h (1 Bft)
31.07.2013 21:15 17,8 C 71 % 1024,2 hPa 0,0 l/m 4,2 km/h (1 Bft) O-NO 67 12,5 C 17,2 C 4,2 km/h (1 Bft)
31.07.2013 21:20 17,7 C 72 % 1024,2 hPa 0,0 l/m 4,0 km/h (1 Bft) O-NO 67 12,6 C 17,0 C 4,8 km/h (1 Bft)
31.07.2013 21:25 17,4 C 72 % 1024,2 hPa 0,0 l/m 4,7 km/h (1 Bft) SO 135 12,3 C 17,0 C 4,7 km/h (1 Bft)
31.07.2013 21:30 17,2 C 73 % 1024,2 hPa 0,0 l/m 4,5 km/h (1 Bft) O 90 12,3 C 16,9 C 4,8 km/h (1 Bft)
31.07.2013 21:35 17,0 C 73 % 1024,2 hPa 0,0 l/m 4,2 km/h (1 Bft) NO 45 12,1 C 16,7 C 3,7 km/h (1 Bft)
31.07.2013 21:40 16,9 C 73 % 1024,3 hPa 0,0 l/m 3,7 km/h (1 Bft) O-NO 67 12,0 C 16,6 C 3,1 km/h (1 Bft)
31.07.2013 21:45 16,7 C 74 % 1024,3 hPa 0,0 l/m 3,2 km/h (1 Bft) O 90 12,0 C 16,4 C 4,2 km/h (1 Bft)
31.07.2013 21:50 16,5 C 75 % 1024,3 hPa 0,0 l/m 3,1 km/h (1 Bft) O 90 12,1 C 16,2 C 3,1 km/h (1 Bft)
31.07.2013 21:55 16,4 C 76 % 1024,3 hPa 0,0 l/m 3,1 km/h (1 Bft) O 90 12,2 C 16,1 C 3,1 km/h (1 Bft)
31.07.2013 22:00 16,3 C 77 % 1024,3 hPa 0,0 l/m 3,4 km/h (1 Bft) O 90 12,3 C 16,0 C 4,8 km/h (1 Bft)
31.07.2013 22:05 16,1 C 77 % 1024,3 hPa 0,0 l/m 4,2 km/h (1 Bft) O 90 12,1 C 15,9 C 5,5 km/h (1 Bft)
31.07.2013 22:10 15,9 C 77 % 1024,3 hPa 0,0 l/m 3,9 km/h (1 Bft) O 90 11,9 C 15,8 C 3,1 km/h (1 Bft)
31.07.2013 22:15 15,8 C 78 % 1024,3 hPa 0,0 l/m 2,1 km/h (1 Bft) O 90 12,0 C 15,6 C 1,6 km/h (1 Bft)
31.07.2013 22:20 15,7 C 78 % 1024,2 hPa 0,0 l/m 1,0 km/h (0 Bft) O 90 11,9 C 15,5 C 0,0 km/h (0 Bft)
31.07.2013 22:25 15,5 C 78 % 1024,2 hPa 0,0 l/m 0,2 km/h (0 Bft) O-SO 112 11,7 C 15,2 C 0,0 km/h (0 Bft)
31.07.2013 22:30 15,3 C 78 % 1024,2 hPa 0,0 l/m 0,0 km/h (0 Bft) NO 45 11,5 C 15,0 C 0,0 km/h (0 Bft)
31.07.2013 22:35 15,0 C 78 % 1024,2 hPa 0,0 l/m 0,0 km/h (0 Bft) NO 45 11,2 C 14,8 C 0,0 km/h (0 Bft)
31.07.2013 22:40 15,1 C 78 % 1024,4 hPa 0,0 l/m 0,0 km/h (0 Bft) NO 45 11,3 C 14,6 C 0,0 km/h (0 Bft)
31.07.2013 22:45 15,2 C 78 % 1024,4 hPa 0,0 l/m 0,0 km/h (0 Bft) O-SO 112 11,4 C 14,5 C 0,0 km/h (0 Bft)
31.07.2013 22:50 15,1 C 78 % 1024,4 hPa 0,0 l/m 0,0 km/h (0 Bft) O-SO 112 11,3 C 14,4 C 0,0 km/h (0 Bft)
31.07.2013 22:55 14,6 C 79 % 1024,4 hPa 0,0 l/m 0,0 km/h (0 Bft) O-SO 112 11,0 C 14,3 C 0,0 km/h (0 Bft)
31.07.2013 23:00 14,4 C 79 % 1024,2 hPa 0,0 l/m 0,0 km/h (0 Bft) O-SO 112 10,8 C 14,1 C 0,0 km/h (0 Bft)
31.07.2013 23:05 14,3 C 79 % 1024,2 hPa 0,0 l/m 0,0 km/h (0 Bft) O 90 10,7 C 13,9 C 0,0 km/h (0 Bft)
31.07.2013 23:10 14,2 C 80 % 1024,2 hPa 0,0 l/m 0,0 km/h (0 Bft) O-SO 112 10,8 C 13,7 C 0,0 km/h (0 Bft)
31.07.2013 23:15 14,1 C 81 % 1024,2 hPa 0,0 l/m 0,0 km/h (0 Bft) NO 45 10,9 C 13,6 C 0,0 km/h (0 Bft)
31.07.2013 23:20 14,0 C 81 % 1024,2 hPa 0,0 l/m 0,0 km/h (0 Bft) NO 45 10,8 C 13,5 C 0,0 km/h (0 Bft)
31.07.2013 23:25 13,8 C 81 % 1024,2 hPa 0,0 l/m 0,0 km/h (0 Bft) NO 45 10,6 C 13,4 C 0,0 km/h (0 Bft)
31.07.2013 23:30 13,8 C 82 % 1024,2 hPa 0,0 l/m 0,0 km/h (0 Bft) W-SW 247 10,8 C 13,4 C 0,0 km/h (0 Bft)
31.07.2013 23:35 14,1 C 82 % 1024,2 hPa 0,0 l/m 0,0 km/h (0 Bft) SW 225 11,1 C 13,5 C 0,0 km/h (0 Bft)
31.07.2013 23:40 14,1 C 82 % 1024,1 hPa 0,0 l/m 0,0 km/h (0 Bft) S-SO 157 11,1 C 13,5 C 0,0 km/h (0 Bft)
31.07.2013 23:45 14,1 C 82 % 1024,1 hPa 0,0 l/m 0,0 km/h (0 Bft) SO 135 11,1 C 13,7 C 0,0 km/h (0 Bft)
31.07.2013 23:50 14,0 C 82 % 1024,1 hPa 0,0 l/m 0,0 km/h (0 Bft) O 90 11,0 C 13,7 C 0,0 km/h (0 Bft)
31.07.2013 23:55 13,9 C 82 % 1024,1 hPa 0,0 l/m 0,0 km/h (0 Bft) O 90 10,9 C 13,6 C 0,0 km/h (0 Bft)
_ Min-Zeit 02:15 16:05 19:55 - 23:55 - - 02:15 02:20 23:55
Minimum _ 12,3 C 40 % 1023,9 hPa - 0,0 km/h (0 Bft) - - 9,1 C 12,3 C 0,0 km/h (0 Bft)
_ Max-Zeit 14:50 23:55 13:15 23:55 11:55 - - 14:50 17:55 11:25
Maximum _ 27,3 C 82 % 1025,9 hPa 0,0 l/m 10,5 km/h
S-SW (2 Bft)
- - 14,0 C 29,3 C 25,6 km/h
SO (4 Bft)
Durchschnitt _ 19,5 C 64 % 1024,9 hPa #0,0 l/m 4,1 km/h (1 Bft) S - 11,9 C 20,4 C 5,3 km/h (1 Bft)